This is the latest recevied weather packets stored in our database for station/object DM3DP. If no packets are shown the sender has not sent any weather packets the latest 10 day(s).
| Time | Temp. | Humidity | Pressure | Rain* | Wind** | Luminosity | Snow |
|---|---|---|---|---|---|---|---|
| 1776943284 | 18.33° C | 39% | 1026.1 hPa | 0 mm | - | 733 W/m² | - |
| 1776942953 | 17.78° C | 38% | 1026.2 hPa | 0 mm | - | 737 W/m² | - |
| 1776942623 | 17.78° C | 38% | 1026.4 hPa | 0 mm | - | 382 W/m² | - |
| 1776942293 | 17.78° C | 39% | 1026.4 hPa | 0 mm | - | 610 W/m² | - |
| 1776941964 | 17.22° C | 40% | 1026.5 hPa | 0 mm | - | 745 W/m² | - |
| 1776941633 | 17.22° C | 40% | 1026.5 hPa | 0 mm | - | 746 W/m² | - |
| 1776941304 | 17.22° C | 39% | 1026.6 hPa | 0 mm | - | 743 W/m² | - |
| 1776940973 | 17.22° C | 41% | 1026.7 hPa | 0 mm | - | 739 W/m² | - |
| 1776940644 | 17.22° C | 41% | 1026.7 hPa | 0 mm | - | 735 W/m² | - |
| 1776940313 | 17.22° C | 41% | 1026.7 hPa | 0 mm | - | 732 W/m² | - |
| 1776939983 | 16.67° C | 43% | 1026.7 hPa | 0 mm | - | 725 W/m² | - |
| 1776939654 | 16.67° C | 42% | 1026.7 hPa | 0 mm | - | 724 W/m² | - |
| 1776939324 | 16.11° C | 42% | 1026.8 hPa | 0 mm | - | 711 W/m² | - |
| 1776938994 | 16.67° C | 43% | 1026.9 hPa | 0 mm | - | 708 W/m² | - |
| 1776938664 | 16.11° C | 41% | 1026.9 hPa | 0 mm | - | 705 W/m² | - |
| 1776938334 | 16.11° C | 41% | 1026.9 hPa | 0 mm | - | 702 W/m² | - |
| 1776938003 | 16.11° C | 42% | 1027 hPa | 0 mm | - | 712 W/m² | - |
| 1776937673 | 15.56° C | 44% | 1027 hPa | 0 mm | - | 712 W/m² | - |
| 1776937343 | 15.56° C | 44% | 1027.1 hPa | 0 mm | - | 712 W/m² | - |
| 1776937013 | 15° C | 45% | 1027.2 hPa | 0 mm | - | 723 W/m² | - |
| 1776936684 | 15° C | 46% | 1027.2 hPa | 0 mm | - | 727 W/m² | - |
| 1776936354 | 15° C | 46% | 1027.2 hPa | 0 mm | - | 728 W/m² | - |
| 1776936024 | 14.44° C | 50% | 1027.3 hPa | 0 mm | - | 734 W/m² | - |
| 1776935693 | 14.44° C | 50% | 1027.3 hPa | 0 mm | - | 735 W/m² | - |
| 1776935363 | 14.44° C | 50% | 1027.5 hPa | 0 mm | - | 737 W/m² | - |
* Rain latest hour (hover to see other rain measurements)
** Current wind speed in m/s (hover to see current wind gust speed)